Regional Weather Roundup
Issued by NWS Wilmington, NC

Home | Current Version | Previous Version | Text Only | Print | Product List | Glossary On
Versions: 1 2 3 4 5 6 7 8 9 10 11 12 13 14 15 16 17 18 19 20 21 22 23 24 25 26 27 28 29 30 31 32 33 34 35 36 37 38 39 40 41 42 43 44 45 46 47 48
000
ASUS42 KILM 011413
RWRILM
RWRILM
REGIONAL HOURLY WEATHER ROUNDUP
NATIONAL WEATHER SERVICE WILMINGTON NC
1000 AM EDT TUE SEP 01 2015

NOTE: "FAIR" INDICATES FEW OR NO CLOUDS BELOW 12,000 FEET WITH NO
SIGNIFICANT WEATHER AND/OR OBSTRUCTIONS TO VISIBILITY.

...............WFO WILMINGTON COUNTY WARNING AREA...............

......COASTAL NC AND SC COUNTIES......

CITY           SKY/WX    TMP DP  RH WIND       PRES   REMARKS
WILMINGTON     PTSUNNY   76  72  87 NW9       30.12R
N MYRTLE BEACH MOSUNNY   77  72  84 N6        30.12S
MYRTLE BEACH   SUNNY     81  70  69 CALM      30.14S

......INLAND NC AND SC COUNTIES.......

CITY           SKY/WX    TMP DP  RH WIND       PRES   REMARKS
LUMBERTON      SUNNY     79  71  76 CALM      30.12R
ELIZABETHTOWN  SUNNY     76  70  82 NW3       30.13R
WHITEVILLE     SUNNY     76  71  83 CALM      30.12S
FLORENCE       SUNNY     79  71  76 CALM      30.13R
DARLINGTON     NOT AVBL

....................REST OF NORTH CAROLINA......................

.........EASTERN NC.........

CITY           SKY/WX    TMP DP  RH WIND       PRES   REMARKS
CAPE HATTERAS  MOSUNNY   81  74  79 VRB6      30.07R
JACKSONVILLE   CLOUDY    75  68  78 N5        30.11R
MOREHEAD CITY  CLOUDY    79  74  84 NW6       30.09R
KENANSVILLE      N/A     76  70  82 NW5       30.13R
NEW BERN       CLOUDY    77  72  84 N6        30.11R
ELIZABETH CITY CLOUDY    77  71  82 N6        30.09R

.........CENTRAL NC.........

CITY           SKY/WX    TMP DP  RH WIND       PRES   REMARKS
RALEIGH DURHAM MOSUNNY   78  70  76 CALM      30.12R
ROCKY MOUNT    CLOUDY    75  70  84 NW5       30.11R
ROANOKE RAPIDS NOT AVBL
FAYETTEVILLE   SUNNY     79  71  76 CALM      30.12R
HOFFMAN        SUNNY     79  71  74 NW6       30.13R

.........WESTERN NC.........

CITY           SKY/WX    TMP DP  RH WIND       PRES   REMARKS
CHARLOTTE      SUNNY     81  68  64 CALM      30.15S
GREENSBORO     MOSUNNY   80  68  66 NW5       30.13S
HICKORY        NOT AVBL
BOONE          NOT AVBL
ASHEVILLE      NOT AVBL

.....................REST OF SOUTH CAROLINA.....................

.........EASTERN SC.........

CITY           SKY/WX    TMP DP  RH WIND       PRES   REMARKS
CHARLESTON     MOSUNNY   82  71  69 N6        30.12F
BEAUFORT MCAS  MOSUNNY  N/A N/A N/A NE6       30.12S
HILTON HEAD    NOT AVBL

.........CENTRAL SC.........

CITY           SKY/WX    TMP DP  RH WIND       PRES   REMARKS
COLUMBIA       PTSUNNY   82  71  69 CALM      30.13F
ORANGEBURG     SUNNY     83  69  62 VRB3      30.14S
SUMTER SHAW    MOSUNNY   81  70  70 NW6       30.12S

.........WESTERN SC.........

CITY           SKY/WX    TMP DP  RH WIND       PRES   REMARKS
GREENVILLE     NOT AVBL
ROCK HILL      SUNNY     80  70  71 VRB3      30.15S
ANDERSON       SUNNY     79  69  71 NW3       30.16S
CLEMSON        NOT AVBL
GREENWOOD      SUNNY     80  69  69 S3        30.17R


...................COASTAL AND OFFSHORE REPORTS..................

................LOCAL PIERS AND NC RESERVE................


STATION/POSITION TIME  SKY/WX   TEMP    WIND        PRES    VSBY
                                AIR SEA DIR/SP/G
                 (UTC)          (F)     (DEG/KT/KT) (MB)    (MI)
JOHNY MRCER PIER 1300            75 82  290/  3/  6 1018.7R
NC RESRV MASNBRO NOT AVBL
OCEAN CREST PIER NOT AVBL
SPRINGMAID  PIER 1300            76 82  290/  5/  6 1019.9R


................COASTAL AND OFFSHORE BUOYS................


STATION/POSITION TIME  SKY/WX   TEMP    WIND        PRES    VSBY
                                AIR SEA DIR/SP/G
                 (UTC)          (F)     (DEG/KT/KT) (MB)    (MI)
DIMNDSHOAL 41025 1350            79 84   10/  8/ 10 1018.1R
WVE H/P(F/S)=  3/ 6 WND WVE H/P(F/S)=  2/ 4 SWL H/P/D(F/S/D)=  3/170/ 6

CAPE LOOKOUT     1400            78     310/  5/  6 1018.9R
ONSLOW BAY 41036 NOT AVBL
ONSLOW BAY 41064 1308            78 81  340/ 10/ 14 1018.9S
ONSLOW BAY 41159 1325               81                N/A
WVE H/P(F/S)=  3/ 7 WND WVE H/P(F/S)=  3/ 7

5SE WRITBC 41038 1308            75 81  330/  8/ 12 1019.0R
MASNBO INL 41110 1319               81                N/A
WVE H/P(F/S)=  2/ 6 WND WVE H/P(F/S)=  2/ 6

WILM HARBR 41108 1311               82                N/A
WVE H/P(F/S)=  2/ 6 WND WVE H/P(F/S)=  2/ 6

27SE WRITB 41037 1300            74 81  330/  6/  8   N/A
FRYING PAN 41013 1350            80 81  300/ 12/ 14 1019.7R
WVE H/P(F/S)=  2/10 WND WVE H/P(F/S)=  2/ 6 SWL H/P/D(F/S/D)=  2/120/10

SUNST NRSH 41024 1308            73     330/  6/ 10 1019.7R
CAPRS NRSH 41029 1308            79      10/  6/  8 1019.9R
EDISTO     41004 1350            81 83  360/  8/  8 1019.2R
WVE H/P(F/S)=  3/ 8 SWL H/P/D(F/S/D)=  3/ 8



..........OFFSHORE BUOYS BEYOND 100 NM OFFSHORE...........
.....IN A TRIANGLE---HAT TO BERMUDA TO BAHAMAS TO HAT.....


STATION/POSITION TIME  SKY/WX   TEMP    WIND        PRES    VSBY
                                AIR SEA DIR/SP/G
                 (UTC)          (F)     (DEG/KT/KT) (MB)    (MI)
150E HAT   41001 1400            77 82  230/ 10/ 12 1018.0F
W BERMUDA  41048 1350            83 84  230/  8/ 10 1020.4R
WVE H/P(F/S)=  2/ 9 WND WVE H/P(F/S)=  2/ 4 SWL H/P/D(F/S/D)=  2/110/ 9

ATLANTIC S 41049 1350            84 86  320/ 10/ 12 1019.9R
WVE H/P(F/S)=  3/ 8 SWL H/P/D(F/S/D)=  3/ 70/ 8

E BAHAMAS  41046 1350            85 86   90/  6/  8 1019.7R
WVE H/P(F/S)=  3/ 9 WND WVE H/P(F/S)=  2/ 4 SWL H/P/D(F/S/D)=  3/ 70/ 9

NE BAHAMAS 41047 1350            84 86  110/  4/  6 1019.4R
WVE H/P(F/S)=  3/ 9 WND WVE H/P(F/S)=  2/ 4 SWL H/P/D(F/S/D)=  3/ 90/ 9

120E CANVRL41010 1320            85 85  160/  4/  6 1019.6R

END



USA.gov is the U.S. government's official web portal to all federal, state and local government web resources and services.